Arcata, CA

12:25 AM PST on January 19, 2018 (GMT -0800)
Arcata

Weather History for KACV - November, 2013

Change the Weather History Date:

Tuesday, November 12, 2013

  Actual Average Record
Temperature  
Mean Temperature 56 °F -  
Max Temperature 60 °F 57 °F 77 °F (1999)
Min Temperature 53 °F 42 °F 33 °F (2000)
Degree Days  
Heating Degree Days 8    
Growing Degree Days 6 (Base 50)    
Moisture  
Dew Point 54 °F    
Average Humidity 92    
Maximum Humidity 100    
Minimum Humidity 72    
Precipitation  
Precipitation 0.25 in - - ()
Sea Level Pressure  
Sea Level Pressure 30.30 in    
Wind  
Wind Speed 4 mph (North)    
Max Wind Speed 10 mph    
Max Gust Speed -    
Visibility 5 miles    
Events Fog , Rain    
Averages and records for this station are not official NWS values.
T = Trace of Precipitation, MM = Missing Value Source: NWS Daily Summary

Daily Weather History Graph

Daily Weather History Graph

Search for Another Location

Airport or City:

Trip Planner

Search our weather history database for the weather conditions in past years. The results will help you decide how hot, cold, wet, or windy it might be!

Date:

Astronomy

Nov. 12, 2013 Rise Set
Actual Time 7:00 AM PST 5:00 PM PST
Civil Twilight 6:31 AM PST 5:29 PM PST
Nautical Twilight 5:58 AM PST 6:02 PM PST
Astronomical Twilight 5:25 AM PST 6:34 PM PST
Moon 2:19 PM PST (11/12) 1:54 AM PST (11/12)
Length of Visible Light 10h 57m
Length of Day
9h 59m
Waxing Gibbous, 77% of the Moon is Illuminated
Nov 12
Waxing Gibbous
Nov 17
Full
Nov 25
Last Quarter
Dec 2
New
Dec 9
First Quarter

Hourly Weather History & Observations

Time (PST) Temp. Dew Point Humidity Pressure Visibility Wind Dir Wind Speed Gust Speed Precip Events Conditions
12:53 AM 54.0 °F 48.0 °F 80% 30.15 in 10.0 mi East 3.5 mph - N/A   Overcast
1:53 AM 57.0 °F 48.0 °F 72% 30.16 in 10.0 mi SE 4.6 mph - 0.01 in Rain Light Rain
2:53 AM 54.0 °F 50.0 °F 86% 30.17 in 10.0 mi Calm Calm - 0.03 in Rain Light Rain
3:53 AM 55.0 °F 50.0 °F 83% 30.18 in 9.0 mi SSW 5.8 mph - 0.02 in Rain Light Rain
4:53 AM 54.0 °F 51.1 °F 90% 30.17 in 10.0 mi East 8.1 mph - 0.01 in   Overcast
5:53 AM 55.0 °F 51.1 °F 86% 30.21 in 7.0 mi NW 3.5 mph - 0.00 in Rain Light Rain
6:53 AM 54.0 °F 52.0 °F 93% 30.24 in 10.0 mi East 4.6 mph - 0.02 in Rain Light Rain
7:53 AM 55.0 °F 52.0 °F 89% 30.27 in 4.0 mi East 3.5 mph - 0.05 in Rain Rain
8:53 AM 55.9 °F 53.1 °F 90% 30.31 in 4.0 mi ESE 4.6 mph - 0.04 in Rain Light Rain
9:53 AM 55.9 °F 53.1 °F 90% 30.30 in 4.0 mi NE 3.5 mph - 0.05 in Rain Light Rain
10:53 AM 57.9 °F 55.0 °F 90% 30.31 in 10.0 mi Calm Calm - 0.00 in   Overcast
11:53 AM 60.1 °F 55.9 °F 86% 30.30 in 10.0 mi ENE 3.5 mph - 0.00 in   Overcast
12:53 PM 60.1 °F 57.0 °F 90% 30.30 in 3.0 mi North 4.6 mph - 0.01 in Rain Light Rain
1:04 PM 60.8 °F 57.2 °F 88% 30.29 in 9.0 mi Calm Calm - 0.00 in   Overcast
1:18 PM 57.2 °F 55.4 °F 94% 30.28 in 4.0 mi NW 5.8 mph - 0.00 in   Overcast
1:28 PM 57.2 °F 53.6 °F 88% 30.29 in 3.0 mi NNW 4.6 mph - 0.00 in Rain Light Rain
1:39 PM 57.2 °F 55.4 °F 94% 30.29 in 2.5 mi North 3.5 mph - 0.00 in Rain Light Rain
1:53 PM 59.0 °F 55.9 °F 90% 30.30 in 3.0 mi NNE 4.6 mph - 0.01 in Rain Light Rain
2:12 PM 59.0 °F 55.4 °F 88% 30.28 in 8.0 mi NE 3.5 mph - 0.00 in   Overcast
2:53 PM 60.1 °F 57.0 °F 90% 30.30 in 4.0 mi East 3.5 mph - 0.00 in Rain Light Rain
3:39 PM 60.8 °F 57.2 °F 88% 30.29 in 10.0 mi Calm Calm - 0.00 in   Overcast
3:53 PM 59.0 °F 55.9 °F 90% 30.31 in 6.0 mi NW 3.5 mph - 0.00 in   Overcast
4:53 PM 59.0 °F 55.9 °F 90% 30.31 in 10.0 mi North 3.5 mph - N/A   Overcast
5:53 PM 57.9 °F 55.9 °F 93% 30.31 in 9.0 mi Calm Calm - N/A   Overcast
6:27 PM 57.2 °F 55.4 °F 94% 30.31 in 2.5 mi SW 3.5 mph - N/A   Overcast
6:42 PM 55.4 °F 53.6 °F 94% 30.31 in 4.0 mi WSW 3.5 mph - N/A   Overcast
6:49 PM 55.4 °F 53.6 °F 94% 30.31 in 5.0 mi West 3.5 mph - N/A   Overcast
6:53 PM 55.9 °F 54.0 °F 93% 30.33 in 5.0 mi West 3.5 mph - N/A   Overcast
7:05 PM 55.4 °F 53.6 °F 94% 30.31 in 5.0 mi Calm Calm - N/A   Overcast
7:45 PM 55.4 °F 53.6 °F 94% 30.32 in 1.8 mi Calm Calm - N/A   Overcast
7:53 PM 55.9 °F 54.0 °F 93% 30.35 in 1.5 mi Calm Calm - N/A   Overcast
8:05 PM 55.4 °F 53.6 °F 94% 30.33 in 2.0 mi West 3.5 mph - N/A   Overcast
8:14 PM 55.4 °F 53.6 °F 94% 30.33 in 0.8 mi WNW 4.6 mph - N/A   Overcast
8:22 PM 55.4 °F 53.6 °F 94% 30.33 in 0.2 mi NW 3.5 mph - N/A Fog Fog
8:31 PM 55.4 °F 53.6 °F 94% 30.33 in 0.5 mi Calm Calm - N/A Fog Fog
8:53 PM 55.0 °F 53.1 °F 93% 30.35 in 1.0 mi East 4.6 mph - N/A   Overcast
9:01 PM 55.4 °F 53.6 °F 94% 30.33 in 2.0 mi East 3.5 mph - N/A   Overcast
9:09 PM 55.4 °F 53.6 °F 94% 30.33 in 4.0 mi East 3.5 mph - N/A   Overcast
9:47 PM 55.4 °F 53.6 °F 94% 30.34 in 1.8 mi NW 9.2 mph - N/A   Overcast
9:53 PM 55.0 °F 54.0 °F 96% 30.36 in 0.8 mi NW 10.4 mph - N/A   Overcast
10:01 PM 53.6 °F 53.6 °F 100% 30.34 in 0.2 mi NNW 10.4 mph - N/A Fog Fog
10:04 PM 53.6 °F 53.6 °F 100% 30.34 in 0.2 mi NNW 9.2 mph - N/A Fog Fog
10:24 PM 53.6 °F 53.6 °F 100% 30.35 in 0.2 mi NNW 9.2 mph - N/A Fog Fog
10:40 PM 55.4 °F 53.6 °F 94% 30.35 in 0.5 mi North 6.9 mph - N/A Fog Fog
10:46 PM 55.4 °F 53.6 °F 94% 30.35 in 2.0 mi North 5.8 mph - N/A   Overcast
10:53 PM 55.0 °F 54.0 °F 96% 30.37 in 5.0 mi NNE 3.5 mph - N/A   Overcast
11:20 PM 55.4 °F 53.6 °F 94% 30.35 in 5.0 mi NNW 3.5 mph - N/A   Overcast
11:27 PM 55.4 °F 53.6 °F 94% 30.35 in 7.0 mi NNW 3.5 mph - N/A   Overcast
11:53 PM 55.0 °F 54.0 °F 96% 30.38 in 8.0 mi NW 5.8 mph - N/A   Overcast